[[[{"header":{"parameterUnit":"kt","parameterCategory":2,"dx":1,"dy":1,"la1":30.253999710083008,"la2":30.299108505249023,"lo1":-89.0895004272461,"lo2":-89.04439544677734,"nx":28,"ny":28,"refTime":"2022-10-28T21:00:00:Z","depth":0,"parameterNumber":1,"parameterNumberName":"U-component_of_WINDS"},"data":[-12.1572,-12.1717,-12.1748,-12.1927,-12.1984,-12.211,-12.2165,-12.2238,-12.2303,-12.2455,-12.2547,-12.259,-12.2664,-12.2779,-12.2877,-12.2893,-12.2931,-12.2962,-12.2974,-12.2815,-12.2795,-12.2775,-12.2742,-12.2971,-12.2972,-12.3133,-12.3135,-12.3136,-12.1454,-12.1513,-12.1617,-12.1737,-12.1826,-12.1816,-12.191,-12.1983,-12.2096,-12.2177,-12.227,-12.2405,-12.2514,-12.2578,-12.2687,-12.2752,-12.2751,-12.2779,-12.2772,-12.2783,-12.2615,-12.258,-12.2779,-12.2779,-12.2779,-12.2779,-12.2779,-12.2779,-12.1245,-12.1332,-12.1422,-12.1535,-12.1604,-12.1684,-12.177,-12.1822,-12.1922,-12.2042,-12.2057,-12.2183,-12.2267,-12.2411,-12.2466,-12.2563,-12.2535,-12.2574,-12.2582,-12.259,-12.2595,-12.2353,-12.2583,-12.2582,-12.2582,-12.2582,-12.2581,0,-12.1101,-12.1121,-12.1222,-12.1333,-12.1417,-12.1504,-12.1589,-12.1644,-12.1691,-12.1771,-12.1889,-12.1961,-12.2103,-12.2215,-12.2322,-12.2371,-12.2362,-12.2365,-12.2391,-12.2383,-12.2363,-12.2372,-12.2093,-12.2357,-12.2355,-12.2353,-12.2352,-12.2352,-12.0889,-12.0987,-12.1096,-12.1163,-12.1217,-12.1325,-12.1394,-12.1429,-12.15,-12.1608,-12.1681,-12.1795,-12.1887,-12.2069,-12.2122,-12.2227,-12.2222,-12.232,-12.2237,-12.2228,-12.2219,-12.2211,-12.2219,-12.2332,-12.2335,-12.2337,-12.2339,0,-12.0767,-12.0815,-12.0975,-12.1072,-12.11,-12.1199,-12.1281,-12.1367,-12.1406,-12.153,-12.1561,-12.162,-12.1734,-12.1773,-12.191,-12.1926,-12.2085,-12.2081,-12.2056,-12.2056,-12.2144,-12.2133,-12.243,-12.2469,-12.2237,-12.2239,-12.2241,0,-12.0603,-12.073,-12.0793,-12.0883,-12.1025,-12.1056,-12.1194,-12.1241,-12.1315,-12.1412,-12.1411,-12.1502,-12.1538,-12.1634,-12.1658,-12.1796,-12.1822,-12.1841,-12.1844,-12.1838,-12.1835,-12.1871,-12.1857,-12.1854,-12.1853,-12.1851,-12.185,0,-12.0403,-12.0585,-12.0734,-12.0782,-12.0896,-12.0964,-12.1015,-12.1097,-12.1164,-12.1257,-12.13,-12.1406,-12.1462,-12.1543,-12.1572,-12.1514,-12.1743,-12.1669,-12.1761,-12.176,-12.1804,-12.18,-12.2059,-12.1848,-12.1848,-12.1847,-12.1847,0,-12.0275,-12.0372,-12.058,-12.0674,-12.072,-12.0818,-12.0924,-12.1017,-12.1103,-12.1125,-12.1198,-12.1199,-12.1325,-12.1249,-12.1422,-12.1339,-12.1394,-12.1424,-12.1432,-12.144,-12.1352,-12.1488,-12.1734,-12.1759,-12.1455,-12.1452,-12.1449,0,-12.0031,-12.0254,-12.0281,-12.0478,-12.0585,-12.0576,-12.0685,-12.0761,-12.0799,-12.0894,-12.0935,-12.1042,-12.0994,-12.1032,-12.1114,-12.1158,-12.1267,-12.1146,-12.1275,-12.1279,-12.1248,-12.1477,-12.1501,-12.1677,-12.1408,-12.1412,-12.1415,0,-11.9847,-11.9985,-12.0018,-12.0074,-12.0182,-12.0271,-12.0396,-12.051,-12.0571,-12.0658,-12.0761,-12.0914,-12.0883,-12.0945,-12.0957,-12.1039,-12.1194,-12.0993,-12.0995,-12.1025,-12.1391,-12.1414,-12.1444,-12.1183,-12.1188,-12.1192,-12.1383,0,-11.9638,-11.9755,-11.9848,-11.997,-12.0046,-12.0172,-12.0213,-12.0287,-12.0291,-12.0327,-12.048,-12.0551,-12.0663,-12.0708,-12.0711,-12.0889,-12.0864,-12.0829,-12.0752,-12.0904,-12.0967,-12.0993,-12.0655,-12.0653,-12.0652,-12.065,0,0,-11.939,-11.9558,-11.9583,-11.9705,-11.977,-11.9756,-11.9886,-11.9947,-12.007,-12.0114,-12.0074,-12.0298,-12.0356,-12.0536,-12.0587,-12.0633,-12.0667,-12.0612,-12.0833,-12.0853,-12.0872,-12.0939,-12.0965,-12.0647,-12.0647,-12.0646,-12.0646,0,-11.9321,-11.9386,-11.9516,-11.9581,-11.9678,-11.971,-11.9741,-11.9833,-11.9862,-12.0013,-11.9995,-12.0092,-12.0269,-12.0332,-12.0387,-12.0593,-12.0571,-12.0625,-12.0721,-12.0815,-12.0837,-12.0857,-12.0927,-12.0952,-12.0642,-12.0642,-12.0642,0,-11.9143,-11.9213,-11.928,-11.9429,-11.9491,-11.9601,-11.9534,-11.9654,-11.9735,-11.9708,-11.9857,-11.9901,-11.9988,-12.0155,-12.0231,-12.0195,-12.0482,-12.0399,-12.041,-12.0418,-12.0509,-12.0536,-12.056,-12.0243,-12.0242,-12.024,0,0,-11.9077,-11.9187,-11.9269,-11.9416,-11.9457,-11.9506,-11.9569,-11.9578,-11.9659,-11.9691,-11.9746,-11.9823,-11.9927,-11.9994,-12.0092,-12.027,-12.0288,-12.0348,-12.0367,-12.0382,-12.0398,-12.0493,-12.052,-12.0234,-12.0234,-12.0234,0,0,-11.9044,-11.9146,-11.9136,-11.9313,-11.9392,-11.948,-11.9567,-11.9556,-11.9649,-11.9638,-11.9656,-11.9678,-11.9834,-11.9877,-11.9795,-12.0065,-11.999,-12.001,-12.003,-12.0054,-12.0073,-12.0057,-11.9731,0,0,0,0,0,-11.8993,-11.9134,-11.9124,-11.9159,-11.9345,-11.9487,-11.951,-11.953,-11.9477,-11.9546,-11.959,-11.9563,-11.9836,-11.9764,-11.9798,-11.9887,-12.0159,-12.0173,-12.0185,-12.0254,-12.0278,-12.03,0,0,0,0,0,0,-11.9007,-11.9051,-11.912,-11.9214,-11.9256,-11.9482,-11.9396,-11.9405,-11.947,-11.9463,-11.9556,-11.9566,-11.9584,-11.9748,-11.9778,-11.9863,-11.972,-12.0165,-12.0176,-12.0186,-12.0262,-12.0282,-12.03,0,0,0,0,0,-11.9019,-11.9054,-11.9346,-11.9212,-11.9249,-11.9309,-11.939,-11.9398,-11.9448,-11.9515,-11.9525,-11.9457,-11.9586,-11.9612,-11.9766,-11.9848,-11.97,-11.9711,-12.0172,-12.0181,-12.0189,-12.0272,0,0,0,0,0,0,-11.9027,-11.906,-11.9353,-11.9365,-11.916,-11.9297,-11.9319,-11.9391,-11.9496,-11.9507,-11.9416,-11.9409,-11.9589,-11.9609,-11.9629,-11.9843,-11.9683,-11.9694,-11.9701,-12.0179,-12.0186,-12.0192,0,0,0,0,0,0,-11.9041,-11.907,-11.9359,-11.9293,-11.9297,-11.9285,-11.9305,-11.9438,-11.9497,-11.9391,-11.9388,-11.9412,-11.9557,-11.9607,-11.9623,-11.9829,-11.967,-11.9681,-11.9689,-11.9693,-12.0184,-12.019,0,0,0,0,0,0,-11.9054,-11.9079,-11.9289,-11.9293,-11.9296,-11.9429,-11.9403,-11.959,-11.9443,-11.9386,-11.943,-11.9424,-11.9556,-11.9572,-11.9619,-11.9819,-11.9827,-11.9671,-11.9678,-11.9683,-11.9687,0,0,0,0,0,0,0,-11.9064,-11.8894,-11.9284,-11.9293,-11.9296,-11.9473,-11.9476,-11.948,-11.9442,-11.9437,-11.9431,-11.9427,-11.9609,-11.962,-11.9632,-11.981,0,0,-11.967,-11.9675,0,0,0,0,0,0,0,0,-11.8884,-11.8892,-11.9285,-11.9287,-11.929,-11.9474,-11.9476,-11.9479,-11.9441,-11.9437,-11.9433,-11.9429,-11.9612,-11.9621,-11.9631,0,0,0,0,0,0,0,0,0,0,0,0,0,0,0,-11.9285,-11.9287,0,-11.9474,-11.9476,-11.9478,-11.944,-11.9437,-11.9433,-11.943,-11.9614,-11.9622,-11.963,0,0,0,0,0,0,0,0,0,0,0,0,0,0,0,0,0,0,0,0,0,0,0,0,0,0,0,0,0,0,0,0,0,0,0,0,0,0,0,0,0,0,0,0,0,0,0,0,0,0,0,0,0,0,0,0,0,0,0,0,0,0,0,0,0,0,0,0,0]}],[{"header":{"parameterUnit":"kt","parameterCategory":2,"dx":1,"dy":1,"la1":30.253999710083008,"la2":30.299108505249023,"lo1":-89.0895004272461,"lo2":-89.04439544677734,"nx":28,"ny":28,"refTime":"2022-10-28T21:00:00:Z","depth":0,"parameterNumber":2,"parameterNumberName":"V-component_of_WINDS"},"data":[10.6036,10.6111,10.6095,10.6174,10.6172,10.6223,10.6236,10.625,10.6257,10.6315,10.6345,10.6334,10.6333,10.6364,10.6395,10.6389,10.6404,10.6445,10.6431,10.6264,10.624,10.6217,10.6198,10.6448,10.6448,10.6608,10.6609,10.661,10.5922,10.5922,10.5957,10.5981,10.6012,10.5963,10.5977,10.6006,10.6052,10.6059,10.6087,10.6135,10.6171,10.6154,10.6185,10.6219,10.6198,10.6229,10.6227,10.6228,10.6048,10.6029,10.6247,10.6247,10.6247,10.6247,10.6247,10.6247,10.571,10.5756,10.5759,10.5797,10.5803,10.5819,10.5859,10.5844,10.5877,10.5907,10.5877,10.5928,10.5931,10.5956,10.5959,10.5998,10.5959,10.5987,10.5995,10.6003,10.6017,10.5795,10.6002,10.6001,10.6,10.6,10.5999,0,10.555,10.5533,10.5564,10.5592,10.5618,10.5636,10.565,10.5673,10.5626,10.5655,10.5696,10.5716,10.5755,10.5791,10.5813,10.5809,10.576,10.5751,10.5771,10.5788,10.5802,10.5798,10.5509,10.5745,10.5743,10.5741,10.574,10.5739,10.5338,10.5391,10.5383,10.5408,10.541,10.5449,10.5469,10.5423,10.5445,10.5454,10.5495,10.5529,10.5554,10.562,10.5599,10.5627,10.5603,10.5696,10.5607,10.5622,10.5607,10.5606,10.5612,10.5715,10.5718,10.572,10.5722,0,10.5221,10.5189,10.5264,10.5249,10.5247,10.5305,10.5292,10.5334,10.5312,10.5366,10.5376,10.5342,10.5382,10.5344,10.538,10.5359,10.5457,10.5431,10.5457,10.5451,10.5532,10.5526,10.5797,10.5831,10.5569,10.5572,10.5574,0,10.5027,10.5097,10.5046,10.509,10.5168,10.5117,10.5195,10.5183,10.5183,10.5224,10.5161,10.5201,10.5146,10.5182,10.5151,10.5223,10.5228,10.5217,10.5209,10.5224,10.5226,10.5235,10.5224,10.5183,10.5182,10.518,10.5179,0,10.4849,10.49,10.4972,10.4979,10.4968,10.5003,10.5,10.4997,10.5015,10.5032,10.5044,10.5067,10.508,10.51,10.506,10.5001,10.5146,10.5056,10.5135,10.5136,10.5168,10.5167,10.5416,10.5178,10.5177,10.5177,10.5176,0,10.4686,10.4705,10.4813,10.4803,10.4818,10.4865,10.4885,10.4915,10.4916,10.49,10.4912,10.4864,10.4921,10.4836,10.4915,10.485,10.4867,10.4861,10.4866,10.4869,10.4774,10.4922,10.5162,10.5187,10.4873,10.487,10.4868,0,10.4493,10.4591,10.4548,10.4651,10.4691,10.4617,10.4668,10.4669,10.4651,10.4682,10.4661,10.4696,10.4624,10.4629,10.4673,10.4652,10.4737,10.4639,10.4687,10.4689,10.4692,10.4912,10.4957,10.5114,10.4835,10.4838,10.4841,0,10.4337,10.4321,10.4342,10.4347,10.4339,10.437,10.4428,10.4451,10.4475,10.4481,10.4529,10.4575,10.4524,10.4532,10.4494,10.4542,10.4678,10.4479,10.4478,10.4518,10.4813,10.4858,10.4884,10.4642,10.4646,10.4649,10.4814,0,10.4106,10.4148,10.4203,10.4212,10.4229,10.4289,10.4246,10.4271,10.4233,10.421,10.4278,10.4265,10.4287,10.4304,10.4265,10.4386,10.436,10.4303,10.4216,10.436,10.4414,10.4436,10.4141,10.4138,10.4136,10.4134,0,0,10.393,10.3988,10.3935,10.3987,10.3999,10.3918,10.3986,10.3988,10.3992,10.4002,10.3954,10.4017,10.4008,10.4094,10.4135,10.4143,10.4161,10.411,10.4292,10.431,10.4326,10.4384,10.4407,10.4129,10.4129,10.4128,10.4127,0,10.3835,10.3828,10.3895,10.3894,10.389,10.3862,10.3879,10.3859,10.3847,10.3911,10.3842,10.3876,10.3925,10.3926,10.3933,10.41,10.4045,10.4109,10.4215,10.4269,10.429,10.4309,10.437,10.4393,10.4121,10.4122,10.4122,0,10.3676,10.3662,10.3689,10.3708,10.3704,10.3745,10.3644,10.369,10.372,10.3625,10.3688,10.3675,10.3671,10.3756,10.3792,10.3749,10.3943,10.3871,10.3885,10.3888,10.3939,10.3964,10.3986,10.369,10.3689,10.3688,0,0,10.3601,10.3637,10.3605,10.3684,10.3687,10.3644,10.366,10.3622,10.3619,10.3618,10.3599,10.3599,10.3627,10.3647,10.367,10.3769,10.3765,10.382,10.384,10.3857,10.3869,10.3925,10.395,10.3683,10.3683,10.3682,0,0,10.3563,10.3529,10.349,10.3576,10.3577,10.3549,10.3599,10.355,10.3566,10.3554,10.349,10.3487,10.3566,10.3554,10.3494,10.3638,10.3554,10.3567,10.3643,10.3668,10.3688,10.3689,10.3387,0,0,0,0,0,10.3443,10.3534,10.3499,10.3506,10.3528,10.3569,10.3571,10.3521,10.3463,10.3505,10.3481,10.342,10.3509,10.3454,10.3462,10.353,10.3619,10.363,10.3641,10.3762,10.3789,10.3811,0,0,0,0,0,0,10.3446,10.3455,10.3496,10.3473,10.3477,10.3565,10.3456,10.3445,10.3458,10.3445,10.3427,10.3419,10.3377,10.3446,10.3454,10.352,10.3384,10.3623,10.3633,10.3642,10.3771,10.3793,10.3812,0,0,0,0,0,10.3447,10.3455,10.3502,10.3471,10.3475,10.343,10.3452,10.3442,10.3451,10.3412,10.3403,10.3412,10.338,10.3383,10.3451,10.3517,10.3378,10.3381,10.363,10.3637,10.3644,10.3782,0,0,0,0,0,0,10.3449,10.3446,10.3502,10.3501,10.3432,10.3424,10.3421,10.344,10.3416,10.3408,10.3394,10.3384,10.3383,10.3385,10.3388,10.352,10.3373,10.3376,10.3378,10.3635,10.3641,10.3647,0,0,0,0,0,0,10.3441,10.3446,10.3501,10.3455,10.3448,10.3419,10.3417,10.3465,10.3416,10.3398,10.339,10.339,10.3378,10.3387,10.3389,10.3467,10.3369,10.3372,10.3374,10.3376,10.364,10.3645,0,0,0,0,0,0,10.3442,10.3446,10.3455,10.345,10.3444,10.3432,10.3461,10.3486,10.3378,10.3401,10.3366,10.3361,10.3382,10.3383,10.339,10.3468,10.3467,10.3369,10.3371,10.3373,10.3374,0,0,0,0,0,0,0,10.3443,10.343,10.3506,10.3446,10.344,10.3495,10.3494,10.3494,10.3376,10.3372,10.3368,10.3363,10.3351,10.3354,10.3358,10.3469,0,0,10.3369,10.337,0,0,0,0,0,0,0,0,10.3427,10.3429,10.3506,10.3506,10.3506,10.3494,10.3494,10.3494,10.3376,10.3372,10.3369,10.3365,10.3352,10.3354,10.3357,0,0,0,0,0,0,0,0,0,0,0,0,0,0,0,10.3506,10.3506,0,10.3494,10.3494,10.3494,10.3375,10.3372,10.3369,10.3366,10.3352,10.3355,10.3357,0,0,0,0,0,0,0,0,0,0,0,0,0,0,0,0,0,0,0,0,0,0,0,0,0,0,0,0,0,0,0,0,0,0,0,0,0,0,0,0,0,0,0,0,0,0,0,0,0,0,0,0,0,0,0,0,0,0,0,0,0,0,0,0,0,0,0,0,0]}]]]